Time,TemperatureF,DewpointF,PressureIn,WindDirection,WindDirectionDegrees,WindSpeedMPH,WindSpeedGustMPH,Humidity,HourlyPrecipIn,Conditions,Clouds,dailyrainin,SoftwareType,DateUTC
2014-01-27 00:21:00,36.2,25.0,29.63,ENE,68,2.0,7.0,65,0.00,,,0.00,weatherlink.com 1.10,2014-01-27 05:21:00,
2014-01-27 00:37:00,37.9,26.0,29.62,NE,43,10.0,10.0,63,0.00,,,0.00,weatherlink.com 1.10,2014-01-27 05:37:00,
2014-01-27 00:55:00,40.2,27.0,29.60,ENE,60,12.0,17.0,60,0.00,,,0.00,weatherlink.com 1.10,2014-01-27 05:55:00,
2014-01-27 01:13:00,41.4,28.0,29.59,ENE,67,6.0,17.0,59,0.00,,,0.00,weatherlink.com 1.10,2014-01-27 06:13:00,
2014-01-27 01:33:00,42.4,28.0,29.57,NE,50,8.0,14.0,58,0.00,,,0.00,weatherlink.com 1.10,2014-01-27 06:33:00,
2014-01-27 01:51:00,43.2,29.0,29.57,ENE,57,11.0,16.0,58,0.00,,,0.00,weatherlink.com 1.10,2014-01-27 06:51:00,
2014-01-27 02:09:00,43.1,29.0,29.56,ENE,58,8.0,15.0,59,0.02,,,0.02,weatherlink.com 1.10,2014-01-27 07:09:00,
2014-01-27 02:29:00,43.3,30.0,29.56,NE,43,25.0,27.0,60,0.04,,,0.04,weatherlink.com 1.10,2014-01-27 07:29:00,
2014-01-27 02:47:00,43.3,30.0,29.56,East,82,9.0,21.0,61,0.06,,,0.06,weatherlink.com 1.10,2014-01-27 07:47:00,
2014-01-27 03:05:00,43.1,31.0,29.56,NNE,22,6.0,17.0,62,0.05,,,0.06,weatherlink.com 1.10,2014-01-27 08:05:00,
2014-01-27 03:25:00,43.0,31.0,29.56,ENE,77,8.0,18.0,63,0.02,,,0.06,weatherlink.com 1.10,2014-01-27 08:25:00,
2014-01-27 03:43:00,43.1,31.0,29.56,NE,48,6.0,20.0,63,0.01,,,0.06,weatherlink.com 1.10,2014-01-27 08:43:00,
2014-01-27 04:01:00,43.2,32.0,29.56,NE,44,6.0,18.0,64,0.00,,,0.06,weatherlink.com 1.10,2014-01-27 09:01:00,
2014-01-27 04:20:00,43.0,32.0,29.56,ENE,74,4.0,14.0,65,0.00,,,0.06,weatherlink.com 1.10,2014-01-27 09:20:00,
2014-01-27 04:38:00,43.0,32.0,29.56,NE,44,7.0,14.0,66,0.00,,,0.06,weatherlink.com 1.10,2014-01-27 09:38:00,
2014-01-27 04:56:00,43.1,32.0,29.57,ENE,66,12.0,25.0,66,0.00,,,0.06,weatherlink.com 1.10,2014-01-27 09:56:00,
2014-01-27 05:16:00,43.9,33.0,29.58,East,94,7.0,29.0,66,0.00,,,0.06,weatherlink.com 1.10,2014-01-27 10:16:00,
2014-01-27 05:34:00,43.1,33.0,29.60,East,84,10.0,17.0,68,0.00,,,0.06,weatherlink.com 1.10,2014-01-27 10:34:00,
2014-01-27 05:52:00,42.1,33.0,29.60,SE,137,7.0,16.0,70,0.00,,,0.06,weatherlink.com 1.10,2014-01-27 10:52:00,
2014-01-27 06:12:00,33.3,30.0,29.66,ESE,112,10.0,30.0,86,0.00,,,0.06,weatherlink.com 1.10,2014-01-27 11:12:00,
2014-01-27 06:30:00,29.9,27.0,29.70,SE,143,11.0,26.0,87,0.00,,,0.06,weatherlink.com 1.10,2014-01-27 11:30:00,
2014-01-27 06:48:00,28.6,26.0,29.74,ESE,117,6.0,16.0,91,0.00,,,0.06,weatherlink.com 1.10,2014-01-27 11:48:00,
2014-01-27 07:08:00,27.6,21.0,29.76,NNW,347,6.0,23.0,76,0.00,,,0.06,weatherlink.com 1.10,2014-01-27 12:08:00,
2014-01-27 07:44:00,27.0,16.0,29.80,ENE,75,8.0,23.0,63,0.00,,,0.06,weatherlink.com 1.10,2014-01-27 12:44:00,
2014-01-27 08:02:00,25.4,17.0,29.83,SE,134,7.0,22.0,69,0.00,,,0.06,weatherlink.com 1.10,2014-01-27 13:02:00,
2014-01-27 08:22:00,23.6,17.0,29.86,South,181,2.0,21.0,77,0.00,,,0.06,weatherlink.com 1.10,2014-01-27 13:22:00,
2014-01-27 08:40:00,21.7,18.0,29.88,ESE,115,4.0,15.0,87,0.00,,,0.06,weatherlink.com 1.10,2014-01-27 13:40:00,
2014-01-27 08:58:00,19.7,17.0,29.91,ESE,118,7.0,18.0,90,0.00,,,0.06,weatherlink.com 1.10,2014-01-27 13:58:00,
2014-01-27 09:18:00,18.1,15.0,29.92,SE,127,5.0,18.0,89,0.00,,,0.06,weatherlink.com 1.10,2014-01-27 14:18:00,
2014-01-27 09:36:00,18.3,15.0,29.95,SE,134,2.0,12.0,86,0.00,,,0.06,weatherlink.com 1.10,2014-01-27 14:36:00,
2014-01-27 09:54:00,15.8,12.0,29.96,ESE,115,14.0,23.0,85,0.00,,,0.06,weatherlink.com 1.10,2014-01-27 14:54:00,
2014-01-27 10:14:00,14.8,10.0,29.98,ESE,106,11.0,19.0,82,0.00,,,0.06,weatherlink.com 1.10,2014-01-27 15:14:00,
2014-01-27 10:32:00,15.3,8.0,30.01,SSE,159,4.0,18.0,74,0.00,,,0.06,weatherlink.com 1.10,2014-01-27 15:32:00,
2014-01-27 10:50:00,15.7,7.0,30.02,ESE,120,12.0,18.0,67,0.00,,,0.06,weatherlink.com 1.10,2014-01-27 15:50:00,
2014-01-27 11:09:00,16.3,5.0,30.02,ESE,122,11.0,19.0,62,0.00,,,0.06,weatherlink.com 1.10,2014-01-27 16:09:00,
2014-01-27 11:28:00,16.7,5.0,30.03,SE,124,7.0,17.0,59,0.00,,,0.06,weatherlink.com 1.10,2014-01-27 16:28:00,
2014-01-27 11:46:00,16.5,4.0,30.03,ESE,121,8.0,16.0,57,0.00,,,0.06,weatherlink.com 1.10,2014-01-27 16:46:00,
2014-01-27 12:04:00,16.5,3.0,30.02,ESE,113,6.0,16.0,56,0.00,,,0.06,weatherlink.com 1.10,2014-01-27 17:04:00,
2014-01-27 12:22:00,17.4,4.0,30.02,SE,127,9.0,19.0,55,0.00,,,0.06,weatherlink.com 1.10,2014-01-27 17:22:00,
2014-01-27 12:42:00,16.6,2.0,30.02,ESE,120,8.0,22.0,53,0.00,,,0.06,weatherlink.com 1.10,2014-01-27 17:42:00,
2014-01-27 13:00:00,17.4,3.0,30.02,ESE,108,13.0,17.0,54,0.00,,,0.06,weatherlink.com 1.10,2014-01-27 18:00:00,
2014-01-27 13:18:00,17.0,3.0,30.02,ESE,120,8.0,14.0,54,0.00,,,0.06,weatherlink.com 1.10,2014-01-27 18:18:00,
2014-01-27 13:38:00,16.0,5.0,30.02,SE,134,14.0,18.0,61,0.00,,,0.06,weatherlink.com 1.10,2014-01-27 18:38:00,
2014-01-27 13:56:00,16.4,6.0,30.02,SE,127,11.0,18.0,63,0.00,,,0.06,weatherlink.com 1.10,2014-01-27 18:56:00,
2014-01-27 14:16:00,15.9,6.0,30.02,SE,134,10.0,17.0,66,0.00,,,0.06,weatherlink.com 1.10,2014-01-27 19:16:00,
2014-01-27 14:32:00,16.3,2.0,30.02,ESE,114,10.0,15.0,54,0.00,,,0.06,weatherlink.com 1.10,2014-01-27 19:32:00,
2014-01-27 14:51:00,17.6,2.0,30.02,ESE,114,4.0,15.0,50,0.00,,,0.06,weatherlink.com 1.10,2014-01-27 19:51:00,
2014-01-27 15:09:00,18.1,1.0,30.04,East,82,9.0,15.0,48,0.00,,,0.06,weatherlink.com 1.10,2014-01-27 20:09:00,
2014-01-27 15:29:00,16.5,1.0,30.04,ESE,121,8.0,20.0,50,0.00,,,0.06,weatherlink.com 1.10,2014-01-27 20:29:00,
2014-01-27 15:47:00,17.3,2.0,30.05,NNE,25,4.0,21.0,50,0.00,,,0.06,weatherlink.com 1.10,2014-01-27 20:47:00,
2014-01-27 16:05:00,15.7,0.0,30.06,SE,140,1.0,14.0,51,0.00,,,0.06,weatherlink.com 1.10,2014-01-27 21:05:00,
2014-01-27 16:23:00,15.6,2.0,30.06,East,86,5.0,14.0,56,0.00,,,0.06,weatherlink.com 1.10,2014-01-27 21:23:00,
2014-01-27 16:40:00,14.9,1.0,30.08,SE,124,7.0,16.0,55,0.00,,,0.06,weatherlink.com 1.10,2014-01-27 21:40:00,
2014-01-27 16:58:00,13.8,3.0,30.08,ESE,113,7.0,17.0,61,0.00,,,0.06,weatherlink.com 1.10,2014-01-27 21:58:00,
2014-01-27 17:16:00,13.4,-2.0,30.09,ESE,102,6.0,18.0,50,0.00,,,0.06,weatherlink.com 1.10,2014-01-27 22:16:00,
2014-01-27 17:34:00,12.6,-2.0,30.10,ESE,113,3.0,18.0,53,0.00,,,0.06,weatherlink.com 1.10,2014-01-27 22:34:00,
2014-01-27 17:53:00,11.9,-2.0,30.11,SE,124,2.0,10.0,55,0.00,,,0.06,weatherlink.com 1.10,2014-01-27 22:53:00,
2014-01-27 18:11:00,11.6,-2.0,30.12,South,175,3.0,16.0,54,0.00,,,0.06,weatherlink.com 1.10,2014-01-27 23:11:00,
2014-01-27 18:29:00,11.1,-2.0,30.14,ESE,104,2.0,10.0,55,0.00,,,0.06,weatherlink.com 1.10,2014-01-27 23:29:00,
2014-01-27 18:47:00,10.6,-2.0,30.15,East,91,7.0,8.0,58,0.00,,,0.06,weatherlink.com 1.10,2014-01-27 23:47:00,
2014-01-27 19:05:00,10.5,-1.0,30.15,ESE,113,3.0,10.0,61,0.00,,,0.06,weatherlink.com 1.10,2014-01-28 00:05:00,
2014-01-27 19:25:00,10.1,-1.0,30.17,East,79,3.0,10.0,61,0.00,,,0.06,weatherlink.com 1.10,2014-01-28 00:25:00,
2014-01-27 19:43:00,9.8,-2.0,30.18,ESE,113,3.0,10.0,60,0.00,,,0.06,weatherlink.com 1.10,2014-01-28 00:43:00,
2014-01-27 20:01:00,9.1,-1.0,30.19,ESE,123,4.0,7.0,63,0.00,,,0.06,weatherlink.com 1.10,2014-01-28 01:01:00,
2014-01-27 20:21:00,8.8,-1.0,30.20,SE,146,8.0,10.0,65,0.00,,,0.06,weatherlink.com 1.10,2014-01-28 01:21:00,
2014-01-27 20:39:00,8.6,-1.0,30.21,ENE,75,7.0,9.0,65,0.00,,,0.06,weatherlink.com 1.10,2014-01-28 01:39:00,
2014-01-27 20:57:00,8.3,-1.0,30.21,ENE,57,8.0,12.0,67,0.00,,,0.06,weatherlink.com 1.10,2014-01-28 01:57:00,
2014-01-27 21:15:00,8.1,0.0,30.22,ESE,115,2.0,11.0,69,0.00,,,0.06,weatherlink.com 1.10,2014-01-28 02:15:00,
2014-01-27 21:35:00,7.6,0.0,30.24,South,191,1.0,8.0,72,0.00,,,0.06,weatherlink.com 1.10,2014-01-28 02:35:00,
2014-01-27 21:53:00,7.5,2.0,30.24,East,84,6.0,8.0,77,0.00,,,0.06,weatherlink.com 1.10,2014-01-28 02:53:00,
2014-01-27 22:11:00,7.2,1.0,30.25,NNE,32,5.0,11.0,77,0.00,,,0.06,weatherlink.com 1.10,2014-01-28 03:11:00,
2014-01-27 22:31:00,6.8,-1.0,30.26,SE,134,4.0,9.0,71,0.00,,,0.06,weatherlink.com 1.10,2014-01-28 03:31:00,
2014-01-27 22:49:00,6.0,-4.0,30.27,ESE,112,6.0,16.0,64,0.00,,,0.06,weatherlink.com 1.10,2014-01-28 03:49:00,
2014-01-27 23:07:00,5.1,-5.0,30.28,SE,143,5.0,17.0,62,0.00,,,0.06,weatherlink.com 1.10,2014-01-28 04:07:00,
2014-01-27 23:28:00,4.4,-6.0,30.30,SE,124,5.0,14.0,63,0.00,,,0.06,weatherlink.com 1.10,2014-01-28 04:28:00,
2014-01-27 23:44:00,4.2,-5.0,30.30,SSE,159,3.0,14.0,65,0.00,,,0.06,weatherlink.com 1.10,2014-01-28 04:44:00,